EW4554 Weather Reports


time (UTC)temp
C
wind
direction
speed
KPH
gust
KPH
rain 1hr
cm
rain 24hr
cm
rain mn
cm
humidity
%
barometer
mb
20210615223146 18 292 0.0 0.0 0.00 0.13 0.13 89 1011.3
20210615221624 19 296 0.0 0.0 0.00 0.13 0.13 89 1011.3
20210615220109 19 350 0.0 0.0 0.05 0.13 0.13 88 1011.3
20210615214606 19 26 0.0 0.0 0.13 0.13 0.13 88 1011.2
20210615213054 20 14 0.0 0.0 0.13 0.13 0.13 87 1011.0
20210615211538 20 24 0.0 0.0 0.13 0.13 0.13 85 1011.0
20210615210039 21 24 0.0 0.0 0.08 0.08 0.08 84 1011.1
20210615204538 21 350 0.0 0.0 0.00 0.00 0.00 80 1011.5
20210615203043 21 243 0.0 0.0 0.00 0.00 0.00 82 1011.1
20210615201552 22 252 0.0 0.0 0.00 0.00 0.00 82 1010.8
20210615200049 22 252 0.0 0.0 0.00 0.00 0.00 82 1010.8
20210615194530 23 252 0.0 1.6 0.00 0.00 0.00 81 1010.6
20210615193108 23 255 0.0 6.4 0.00 0.00 0.00 81 1010.4
20210615191533 23 250 0.0 0.0 0.00 0.00 0.00 80 1010.4
20210615190114 23 250 0.0 0.0 0.00 0.00 0.00 77 1010.4
20210615184613 23 250 0.0 0.0 0.00 0.00 0.00 73 1010.7
20210615183051 23 250 0.0 1.6 0.00 0.00 0.00 72 1010.7
20210615181620 24 304 0.0 0.0 0.00 0.00 0.00 71 1010.9
20210615180043 26 300 0.0 0.0 0.00 0.00 0.00 66 1010.9
20210615174533 27 345 0.0 3.2 0.00 0.00 0.00 60 1010.9
20210615173021 27 312 0.0 8.0 0.00 0.00 0.00 57 1010.7
20210615171540 28 86 0.0 19.3 0.00 0.00 0.00 58 1011.3
20210615170026 29 314 0.0 8.0 0.00 0.00 0.00 62 1010.9
20210615164522 27 248 0.0 0.0 0.00 0.00 0.00 62 1010.7
20210615163034 28 321 0.0 0.0 0.00 0.00 0.00 56 1010.8
20210615161544 30 248 0.0 4.8 0.00 0.00 0.00 49 1010.4
20210615160051 31 323 1.6 16.1 0.00 0.00 0.00 46 1010.7
20210615154536 30 331 0.0 19.3 0.00 0.00 0.00 51 1011.0
20210615153018 31 338 0.0 17.7 0.00 0.00 0.00 51 1011.2
20210615151512 32 342 1.6 16.1 0.00 0.00 0.00 50 1011.3
20210615150030 33 59 0.0 6.4 0.00 0.00 0.00 54 1011.5
20210615144523 32 315 0.0 0.0 0.00 0.00 0.00 51 1011.3
20210615143015 33 294 0.0 9.7 0.00 0.00 0.00 47 1011.3
20210615141514 33 236 0.0 12.9 0.00 0.00 0.00 49 1011.2
20210615140024 34 338 0.0 8.0 0.00 0.00 0.00 51 1011.2
20210615134517 34 336 0.0 8.0 0.00 0.00 0.00 51 1011.5
20210615133011 34 308 0.0 0.0 0.00 0.00 0.00 53 1011.8
20210615131501 34 265 0.0 6.4 0.00 0.00 0.00 51 1011.9
20210615130151 34 311 0.0 6.4 0.00 0.00 0.00 49 1012.1
20210615124641 34 18 1.6 8.0 0.00 0.00 0.00 39 1012.3
20210615123115 33 340 0.0 6.4 0.00 0.00 0.00 43 1012.4
20210615121707 33 167 0.0 0.0 0.00 0.00 0.00 43 1012.6
20210615120122 32 211 0.0 0.0 0.00 0.00 0.00 46 1012.8
20210615114656 32 230 0.0 0.0 0.00 0.00 0.00 47 1012.9
20210615113041 31 222 0.0 0.0 0.00 0.00 0.00 49 1013.0
20210615111611 31 209 0.0 0.0 0.00 0.00 0.00 47 1013.2
20210615110052 31 240 0.0 0.0 0.00 0.00 0.00 50 1013.3
20210615104540 30 200 0.0 0.0 0.00 0.00 0.00 53 1013.5
20210615103033 29 192 0.0 0.0 0.00 0.00 0.00 56 1013.6
20210615101613 29 222 0.0 0.0 0.00 0.00 0.00 62 1013.6
20210615100037 28 129 0.0 0.0 0.00 0.00 0.00 60 1013.7
20210615094519 27 355 0.0 0.0 0.00 0.00 0.00 64 1014.0
20210615093008 26 257 0.0 0.0 0.00 0.00 0.00 72 1014.1
20210615091609 25 196 0.0 0.0 0.00 0.00 0.00 73 1014.3
20210615091506 25 196 0.0 0.0 0.00 0.00 0.00 73 1014.3
20210615090146 23 196 0.0 0.0 0.00 0.00 0.00 76 1014.5
20210615084639 22 209 0.0 0.0 0.00 0.00 0.00 79 1014.6
20210615083121 21 192 0.0 0.0 0.00 0.00 0.00 83 1014.7
20210615081642 20 206 0.0 0.0 0.00 0.00 0.00 86 1014.8
20210615080056 18 159 0.0 0.0 0.00 0.00 0.00 90 1015.0
20210615074549 17 238 0.0 0.0 0.00 0.00 0.00 91 1015.0
20210615073126 17 261 0.0 0.0 0.00 0.00 0.00 93 1015.1
20210615071613 16 286 0.0 0.0 0.00 0.00 0.00 93 1015.2
20210615070126 16 286 0.0 0.0 0.00 0.00 0.00 93 1015.2
20210615064544 16 300 0.0 0.0 0.00 0.00 0.00 93 1015.2
20210615063134 16 297 0.0 0.0 0.00 0.00 0.00 93 1015.2
20210615061545 15 297 0.0 0.0 0.00 0.00 0.00 94 1015.2
20210615060028 15 297 0.0 0.0 0.00 0.00 0.00 94 1015.2
20210615054530 14 297 0.0 0.0 0.00 0.00 0.00 94 1015.2
20210615053030 13 297 0.0 0.0 0.00 0.00 0.00 93 1015.3
20210615051539 12 297 0.0 0.0 0.00 0.00 0.00 92 1015.1
20210615050022 12 297 0.0 0.0 0.00 0.00 0.00 91 1015.1
20210615044523 12 297 0.0 0.0 0.00 0.00 0.00 91 1015.0
20210615043028 13 297 0.0 0.0 0.00 0.00 0.00 91 1014.8
20210615041518 13 297 0.0 0.0 0.00 0.00 0.00 90 1014.8
20210615040008 13 297 0.0 0.0 0.00 0.00 0.00 90 1015.0
20210615034505 14 297 0.0 0.0 0.00 0.00 0.00 90 1014.9
20210615033014 15 297 0.0 0.0 0.00 0.00 0.00 90 1014.9
20210615031702 15 297 0.0 0.0 0.00 0.00 0.00 91 1015.0
20210615030136 15 297 0.0 0.0 0.00 0.00 0.00 91 1015.1
20210615024717 15 297 0.0 0.0 0.00 0.00 0.00 91 1015.1
20210615023129 15 297 0.0 0.0 0.00 0.00 0.00 91 1015.2
20210615021809 15 297 0.0 0.0 0.00 0.00 0.00 91 1015.4
20210615020120 15 297 0.0 0.0 0.00 0.00 0.00 91 1015.5
20210615014717 15 297 0.0 0.0 0.00 0.00 0.00 90 1015.7
20210615013141 15 297 0.0 0.0 0.00 0.00 0.00 89 1015.7
20210615011649 16 297 0.0 0.0 0.00 0.00 0.00 89 1015.8
20210615010146 16 297 0.0 0.0 0.00 0.00 0.00 90 1016.1
20210615004624 16 297 0.0 0.0 0.00 0.00 0.00 90 1016.2
20210615003121 16 297 0.0 0.0 0.00 0.00 0.00 89 1016.4
20210615001605 16 297 0.0 0.0 0.00 0.00 0.00 89 1016.7
20210615000157 16 297 0.0 0.0 0.00 0.00 0.00 89 1016.7
20210614234631 16 297 0.0 0.0 0.00 0.00 0.00 89 1016.8
20210614233057 16 297 0.0 0.0 0.00 0.00 0.00 88 1016.8
20210614231653 17 297 0.0 0.0 0.00 0.00 0.00 88 1016.7
20210614230107 17 297 0.0 0.0 0.00 0.00 0.00 88 1016.7
20210614224636 17 297 0.0 0.0 0.00 0.00 0.00 88 1016.7